Location: Staunton
(38.1490°N, 79.0720°W)
Time: 19:50:59
(UTC-04:00)

ISS - Pass Details

Date: 02 August 2020
Orbit: 418 x 420 km, 51.6° (Epoch: 15 August)

Event Time Altitude Azimuth Distance (km) Brightness Sun altitude
Rises 21:23:05 0° 311° (NW) 2,369 2.1 -11.1°
Reaches altitude 10° 21:25:12 10° 314° (NW) 1,502 0.5 -11.4°
Maximum altitude 21:28:34 67° 38° (NE) 457 -3.6 -12.0°
Enters shadow 21:30:38 21° 117° (ESE) 992 -2.5 -12.3°
